Theta_e
326 319 320 316 308 308 304 305 307 317 321 328 329 328 326 329 324 321 352 356 355 355 356 358 362 362 362 362 362 362 362 362 362 362 362 361 360 357 357 358 360 362 362 361 359 357 355 354 352
320 317 317 312 305 302 304 307 307 322 326 330 330 328 327 325 332 343 349 357 355 355 356 354 362 362 362 361 361 361 361 361 362 361 360 359 358 358 358 360 361 362 361 360 359 357 355 354 352
319 315 313 309 305 302 304 308 309 324 327 329 328 330 329 327 336 347 352 358 357 355 354 357 361 361 361 361 360 360 360 360 360 360 359 358 358 359 360 360 361 361 360 360 360 359 357 354 353
316 314 309 305 301 304 305 308 311 324 327 330 329 325 331 340 342 347 354 358 356 353 353 360 361 360 361 361 360 360 360 360 360 359 359 358 357 358 360 361 361 361 361 360 360 360 360 356 353
314 310 304 302 301 304 307 308 308 317 326 329 330 325 330 337 346 352 355 356 353 352 351 357 361 360 361 361 361 359 359 359 359 359 359 357 357 358 359 360 359 359 360 361 360 359 360 359 357
310 309 301 298 300 304 307 308 306 312 325 329 327 327 327 338 347 353 356 353 354 352 353 355 360 361 360 360 360 359 359 359 358 358 358 358 357 357 358 359 359 358 358 360 360 360 359 357 356
308 306 301 299 301 302 304 307 306 311 320 327 330 324 333 336 351 353 355 356 354 354 353 353 353 358 360 359 359 359 359 359 358 358 358 358 358 356 357 358 358 356 357 358 360 360 358 357 356
309 307 300 301 301 301 305 307 326 319 315 333 333 325 325 336 351 351 353 354 353 354 353 352 353 350 352 355 359 359 359 359 358 357 357 357 357 357 356 354 356 355 355 356 358 359 358 357 355
307 304 300 300 300 303 306 307 309 323 329 329 332 337 339 345 349 348 347 350 350 352 353 353 349 351 349 349 354 358 359 359 358 357 356 353 349 351 352 352 354 354 353 355 357 359 358 357 355
308 303 301 303 303 305 307 306 308 315 326 328 334 339 343 345 346 345 342 342 345 348 351 353 353 352 351 349 352 352 351 353 353 353 353 349 350 351 349 351 353 352 352 352 355 358 358 356 356
304 303 304 305 307 307 307 308 308 317 324 329 329 338 340 343 345 345 343 341 342 347 349 351 355 357 353 350 352 350 350 352 354 355 355 354 350 350 348 349 348 349 349 345 349 354 354 355 355
302 305 305 306 306 306 306 308 307 319 328 331 333 341 339 341 343 344 344 343 342 345 347 350 354 356 356 354 354 353 349 351 350 352 356 353 350 350 349 347 347 349 347 346 345 346 354 355 355
303 304 304 306 306 306 305 306 307 308 312 313 317 339 338 340 343 345 346 345 344 343 346 349 353 355 355 357 355 354 353 351 352 353 354 352 350 349 348 348 347 346 348 345 344 343 344 349 352
305 305 306 307 308 306 304 304 305 310 312 315 330 334 339 339 337 339 344 345 345 346 346 348 351 354 353 355 357 354 355 354 354 353 352 354 352 351 348 348 346 346 347 347 347 345 344 342 344
306 304 306 307 308 307 306 303 305 311 310 312 321 331 339 340 336 334 342 347 348 348 348 348 350 353 353 354 355 354 354 353 353 353 355 355 355 353 351 348 346 347 351 351 350 350 347 344 341
303 303 299 305 305 305 306 301 308 310 309 310 317 322 330 340 341 340 339 341 348 349 347 349 347 349 352 352 354 353 353 353 353 353 353 353 354 354 352 348 347 348 350 350 350 349 346 345 343
300 297 298 301 305 305 304 303 308 310 309 309 311 317 321 327 337 342 343 343 344 347 349 348 348 347 349 351 352 352 353 352 351 353 352 353 353 353 352 349 348 351 349 350 349 348 347 346 345
296 297 299 299 303 305 303 304 307 308 306 307 308 309 310 311 315 318 322 327 333 338 347 350 348 349 349 348 349 348 347 348 350 349 350 352 350 351 350 349 350 351 349 350 350 349 348 346 346
300 299 298 303 305 303 303 303 305 308 309 308 310 311 313 313 317 320 321 320 324 333 342 346 347 349 347 344 342 343 342 346 349 349 350 350 350 349 349 348 349 349 348 350 353 350 348 346 348
300 299 300 303 303 304 302 302 304 308 309 310 311 311 312 315 317 320 322 323 322 327 340 346 347 349 347 345 347 345 345 348 349 349 350 350 349 348 347 346 344 346 345 349 350 349 347 345 345
301 299 299 300 301 302 302 301 302 307 309 311 312 313 313 313 315 319 322 324 324 323 325 340 349 348 347 350 348 348 350 348 348 347 349 350 349 348 348 346 346 345 344 342 348 349 348 342 341
298 303 301 299 299 296 301 294 300 305 305 308 310 311 312 313 316 318 321 323 324 324 325 324 339 350 348 349 348 348 345 343 346 350 351 350 349 348 347 347 346 343 343 348 348 349 346 343 336
301 303 302 301 300 298 298 296 299 303 302 305 307 308 310 313 314 317 319 323 325 327 328 324 328 344 351 349 350 348 348 348 350 349 354 353 349 349 347 346 345 343 344 350 350 348 345 344 341
304 301 300 299 299 293 298 297 297 301 301 303 305 306 308 310 313 316 320 322 323 327 329 327 326 336 348 348 348 351 351 352 347 348 346 343 345 345 346 346 346 345 345 349 348 349 349 347 345
302 301 293 292 292 291 298 295 299 301 303 303 303 305 308 311 312 314 316 318 321 323 327 329 329 332 341 347 346 347 350 353 352 351 345 344 342 341 342 346 345 345 347 350 350 349 349 348 345
301 301 294 288 289 293 296 294 297 302 304 304 305 306 308 308 312 314 315 317 319 321 323 327 331 334 341 345 346 347 348 347 347 350 344 342 341 342 346 345 346 347 349 351 350 347 347 349 347
299 297 300 294 294 293 296 295 299 301 300 301 303 305 306 307 309 312 316 317 319 320 322 323 325 331 335 342 344 344 343 343 345 348 347 343 348 343 346 344 344 345 349 350 350 345 346 347 347
300 300 295 296 288 286 291 293 296 296 297 300 301 302 305 307 308 311 313 317 319 321 322 323 324 324 328 335 340 343 344 342 340 341 342 345 348 346 345 343 344 343 346 348 349 347 347 346 344
297 296 295 294 293 289 288 292 300 297 299 299 300 302 303 305 307 309 312 315 318 320 321 323 322 322 323 326 331 336 338 342 343 340 340 341 344 345 344 343 343 342 343 347 347 347 346 344 344
295 294 294 291 290 291 291 292 299 300 300 301 300 301 303 305 307 309 310 312 314 316 319 321 322 322 322 323 325 326 330 334 334 337 341 341 341 342 342 342 342 341 341 346 346 344 343 343 340
Wind_Speed
3 5 3 3 4 2 2 4 3 2 4 0 6 3 4 2 2 1 1 11 18 19 15 17 19 16 19 20 18 18 19 18 17 16 15 14 14 13 12 11 10 11 12 13 13 14 14 14 14
4 4 2 1 3 4 2 2 6 2 2 3 3 1 2 1 1 6 8 10 19 19 16 16 17 18 18 17 18 17 17 17 16 16 15 13 12 13 12 11 11 11 12 13 13 13 13 13 12
4 1 3 2 1 2 2 3 4 2 4 7 7 2 1 0 2 8 7 11 16 16 16 15 17 20 19 18 18 17 16 16 15 15 15 15 13 12 11 10 10 10 11 11 11 12 12 11 11
3 3 3 3 3 3 3 3 4 2 4 6 3 3 1 2 4 4 11 16 17 16 15 17 16 18 19 18 18 17 16 15 16 16 13 13 12 11 9 9 9 9 10 11 11 9 11 10 9
2 1 2 2 3 3 6 5 4 7 2 6 4 2 1 4 1 6 13 13 16 15 13 15 14 16 17 18 18 17 16 15 13 13 13 12 11 11 10 9 8 9 9 9 11 10 9 8 8
3 0 3 5 3 3 6 5 6 9 5 4 4 2 3 4 6 9 12 13 15 16 14 14 13 13 15 16 16 16 15 14 14 14 13 12 11 10 10 9 9 9 9 9 10 10 9 9 8
2 2 3 4 3 2 4 9 4 6 9 5 1 2 3 5 9 11 10 11 13 14 14 13 14 13 13 15 16 15 15 14 14 13 13 12 11 10 9 9 8 8 7 7 8 9 8 8 8
3 1 5 3 4 3 4 6 4 4 7 1 3 3 1 7 13 13 12 13 13 13 13 13 12 14 13 12 13 14 14 13 13 13 12 11 11 10 10 8 7 8 7 8 8 9 8 7 7
2 2 4 4 5 2 4 9 1 2 2 3 5 2 3 14 15 14 13 12 11 10 12 13 14 12 12 11 12 11 13 13 11 11 11 10 8 9 9 6 8 8 6 5 6 7 8 7 6
1 3 5 1 2 6 11 5 10 2 4 5 3 4 9 15 15 15 15 14 14 14 14 12 12 12 11 9 10 11 10 9 9 10 10 7 6 6 6 5 6 6 6 5 5 6 7 8 5
2 2 3 3 7 7 8 8 1 1 4 6 6 7 13 15 14 14 14 15 15 13 11 12 11 11 12 10 8 6 6 6 7 10 8 7 5 5 5 4 5 5 6 5 6 7 6 6 5
3 4 3 3 3 3 5 8 5 4 2 4 3 8 15 16 16 15 15 15 16 16 15 13 13 12 13 9 9 8 7 7 7 8 9 6 5 6 5 4 5 4 4 4 4 4 3 6 7
5 2 5 6 8 7 4 9 4 6 5 5 5 12 14 14 13 11 11 12 13 16 16 15 14 13 12 11 9 8 8 8 8 7 9 7 7 6 6 5 4 4 4 4 5 4 4 5 6
5 3 5 5 6 4 4 1 5 7 5 5 2 9 16 16 14 11 12 13 14 13 14 14 15 13 12 12 11 9 8 9 8 8 9 11 8 6 6 5 5 5 5 5 5 4 4 5 5
1 4 5 6 3 3 7 4 8 5 3 8 8 6 8 14 13 16 14 14 14 13 12 16 15 15 15 15 13 10 8 9 8 8 10 11 9 8 7 6 5 5 5 6 4 5 4 5 6
2 2 5 2 3 2 5 6 8 3 5 11 11 9 9 12 17 14 13 13 13 13 17 15 14 16 16 14 11 9 9 8 8 8 8 10 10 9 8 6 5 5 4 5 5 5 5 5 5
2 3 3 3 1 1 4 5 3 4 7 12 12 10 8 8 9 14 15 14 14 16 15 17 17 18 17 13 10 9 8 8 7 7 8 9 10 10 8 7 6 7 5 6 5 5 6 5 6
4 4 2 5 3 2 3 10 4 8 4 5 6 5 8 10 10 12 12 7 6 8 12 13 13 15 15 10 9 7 8 8 8 8 8 9 9 10 8 7 7 6 5 5 5 7 6 5 4
5 3 6 7 5 4 5 5 8 10 13 13 14 13 12 12 11 13 13 11 7 7 9 12 12 13 11 12 12 11 11 9 9 9 11 11 9 9 9 7 7 7 6 5 6 5 7 4 4
6 6 8 8 5 9 4 2 10 12 13 13 13 14 12 13 15 15 15 12 9 9 11 13 15 15 14 12 10 8 9 9 8 7 8 9 10 10 9 9 8 8 7 8 7 7 4 3 4
7 7 4 4 4 2 5 5 7 10 13 14 15 13 14 14 14 16 16 14 13 10 10 13 15 15 14 14 9 7 6 4 6 8 8 10 11 10 10 11 9 7 7 7 9 8 7 5 4
8 9 5 3 6 6 4 5 6 8 11 13 13 14 15 17 17 17 19 18 15 13 12 13 14 16 15 16 13 16 12 12 11 9 8 8 11 11 11 10 10 9 8 7 8 7 6 5 6
6 7 7 5 7 5 6 5 7 6 7 10 11 12 13 14 15 18 19 19 18 15 12 10 12 15 16 16 17 14 14 11 8 8 10 9 8 10 11 11 10 10 8 8 8 8 7 6 6
4 5 3 2 4 8 9 10 9 6 5 7 8 11 12 13 13 14 15 16 18 18 15 10 7 12 15 16 17 17 17 13 11 10 9 8 7 7 10 11 10 10 9 10 9 9 9 7 5
4 6 7 8 8 9 6 9 6 8 7 7 7 9 11 12 12 13 16 18 18 20 20 14 8 7 11 15 16 17 16 13 14 12 10 11 8 8 11 13 12 10 11 11 10 9 9 8 6
9 10 8 12 11 10 3 7 8 8 8 6 6 6 9 12 13 14 14 14 15 16 17 17 11 6 5 8 13 13 14 11 11 11 10 11 10 11 10 13 12 12 12 11 10 8 8 7 7
5 7 3 3 2 6 5 5 4 7 6 5 6 8 10 11 12 13 13 13 14 14 15 15 15 11 7 5 7 9 9 10 10 10 9 9 9 10 11 13 13 13 12 13 12 9 9 8 7
1 4 3 2 6 10 6 6 5 15 7 3 4 7 8 10 12 13 13 13 12 12 12 14 14 14 13 8 5 4 6 7 9 7 10 12 10 12 11 13 14 14 14 14 13 10 10 10 8
2 3 3 2 4 7 11 4 6 11 6 3 2 4 7 9 10 10 11 12 12 12 13 13 14 15 15 14 12 7 4 4 7 10 12 13 12 12 12 13 14 15 15 15 14 13 12 12 11
7 3 3 5 5 1 4 2 7 7 4 1 1 3 6 7 8 8 9 10 12 13 13 13 12 11 12 12 11 12 10 7 4 6 8 10 11 11 12 11 10 14 15 15 16 16 15 15 14
Wind_Direction
156 151 168 194 237 266 40 65 291 170 186 222 162 191 221 346 251 58 354 175 145 145 156 158 146 143 136 134 133 128 126 127 125 124 124 124 121 120 119 121 123 125 123 123 122 121 118 113 109
138 132 165 158 234 192 128 283 17 170 125 151 126 76 200 278 132 103 129 171 159 148 154 156 150 142 138 134 130 127 127 127 127 125 124 123 124 127 128 128 129 131 134 132 135 131 129 124 120
143 1 237 185 170 194 254 226 343 305 196 195 172 248 221 132 107 130 109 143 150 149 149 154 155 146 144 141 133 131 127 126 127 129 134 136 136 134 132 131 131 137 140 139 142 142 138 135 130
161 154 113 233 150 193 265 325 270 211 196 208 167 188 171 51 135 61 147 148 149 151 153 154 161 150 145 143 136 134 135 137 139 139 135 133 132 129 126 128 133 141 147 148 146 143 140 143 140
68 135 138 146 193 269 257 289 270 237 200 162 195 126 217 135 73 132 148 157 154 148 154 161 160 149 145 148 145 143 143 140 138 135 137 138 139 137 134 134 137 142 147 149 150 148 142 143 155
119 253 176 165 199 258 283 289 283 234 202 143 205 244 116 124 144 140 153 156 156 149 159 157 160 154 150 150 147 147 145 146 149 151 147 146 146 148 149 151 150 148 150 153 150 152 147 146 145
132 170 132 152 170 255 341 344 219 249 215 193 41 256 94 173 134 140 147 151 156 159 162 165 162 161 156 157 155 154 156 156 155 154 153 155 158 157 160 157 155 151 145 149 152 153 158 153 148
111 107 145 200 177 86 0 345 322 217 224 76 174 271 111 151 149 144 145 151 159 166 167 164 168 169 169 169 164 162 162 159 164 163 162 163 166 168 169 164 165 164 160 164 164 164 164 166 159
166 143 181 185 201 2 352 350 100 304 207 176 188 284 22 144 149 143 142 148 161 172 172 173 175 172 173 175 174 172 170 170 162 168 177 170 183 183 173 172 159 178 171 170 160 170 162 167 158
174 204 194 205 248 312 321 322 331 281 210 200 196 88 131 150 161 158 163 165 176 180 182 183 181 176 174 177 179 189 184 185 187 187 189 195 186 196 204 184 193 190 182 173 170 169 166 196 195
148 220 188 217 249 281 310 305 340 209 220 238 228 172 161 170 173 173 175 182 184 184 186 190 185 188 187 186 184 188 192 187 195 199 191 196 187 194 204 197 198 203 190 203 194 182 206 203 216
214 240 226 281 231 273 284 302 310 198 294 201 236 178 167 184 182 183 183 183 184 190 194 191 191 190 195 194 193 189 192 191 201 202 200 190 201 195 205 208 204 208 209 203 214 204 196 222 221
210 231 204 257 269 251 273 258 301 263 257 309 155 164 175 193 191 196 199 194 196 201 197 195 194 194 194 197 195 199 201 197 199 197 202 208 210 209 209 210 212 217 211 217 211 214 222 222 228
181 253 278 271 263 205 216 263 195 249 253 289 192 193 181 196 200 196 198 200 204 208 207 202 203 198 195 203 199 198 198 200 203 207 208 205 213 211 217 216 216 220 218 220 222 214 218 242 245
159 282 293 223 226 237 183 172 218 223 219 244 256 222 212 205 194 210 204 209 205 209 205 207 204 202 202 199 198 197 200 198 209 210 206 208 211 208 224 226 224 220 219 235 232 226 222 232 231
239 205 256 173 195 70 229 238 237 229 224 235 234 227 224 215 220 220 212 215 212 209 209 204 204 205 209 205 200 198 197 203 211 211 204 210 212 212 215 226 226 226 229 230 232 230 220 232 237
41 242 210 292 34 107 229 237 242 296 277 257 238 246 244 246 237 232 224 224 218 216 208 204 205 208 205 206 209 207 208 217 216 215 211 208 212 210 215 224 227 223 228 231 222 228 232 221 230
127 147 214 267 151 303 209 258 313 357 0 333 7 334 332 322 332 327 307 297 274 241 230 217 206 210 203 200 201 209 211 217 219 218 214 207 209 205 205 216 220 217 229 227 210 221 208 236 230
221 225 257 264 229 266 205 260 35 52 63 61 57 40 23 18 354 2 351 325 273 235 230 225 220 213 199 200 194 206 212 209 217 216 212 206 204 197 198 208 205 209 224 219 208 181 181 178 190
212 246 256 278 227 215 176 169 70 56 57 62 65 58 35 24 17 8 360 354 334 285 218 213 219 213 208 207 208 202 200 214 224 218 215 207 202 194 195 198 206 210 219 212 207 198 179 182 193
237 230 216 265 123 159 152 188 143 79 64 57 48 46 44 34 19 9 8 4 348 331 287 248 221 212 211 219 197 183 172 198 202 209 208 206 197 191 198 205 217 211 217 215 211 207 204 187 174
252 210 211 188 191 203 238 197 131 118 83 59 44 35 25 19 17 13 8 8 360 341 314 277 248 223 206 200 209 201 200 204 212 204 202 189 193 192 195 206 207 204 205 215 205 199 199 188 174
251 176 209 200 206 197 179 230 135 208 86 57 46 40 33 26 18 12 7 1 0 356 344 304 259 233 219 204 206 206 211 210 201 200 187 184 179 195 197 198 195 194 207 203 204 184 190 189 186
112 140 88 103 180 226 202 227 170 177 129 90 70 41 24 15 16 15 10 7 7 4 2 358 293 245 227 218 212 212 215 207 201 197 192 192 189 190 200 197 194 199 202 203 199 191 194 197 191
185 197 219 218 214 251 176 210 36 129 103 79 42 28 23 20 17 10 10 9 7 5 358 356 353 280 249 230 222 222 232 230 220 201 196 192 192 200 198 195 192 193 197 198 195 194 196 193 187
200 219 235 251 245 251 162 207 150 117 96 67 49 28 27 26 19 16 10 2 3 1 1 358 357 350 274 234 228 227 231 232 228 226 215 200 202 207 193 193 190 191 191 195 195 198 202 190 192
150 213 357 165 63 247 172 103 129 133 101 70 42 33 20 13 12 14 11 6 0 360 4 5 6 3 360 286 219 223 228 236 242 233 230 219 209 209 200 198 189 190 194 196 194 203 197 193 192
44 81 193 191 230 240 196 197 172 180 145 99 45 22 11 5 7 7 7 7 360 2 5 9 9 14 6 360 344 262 231 232 229 238 228 229 230 218 210 203 200 192 193 196 198 198 196 192 189
4 149 70 321 309 269 251 200 121 147 137 123 57 25 8 2 2 2 1 3 3 5 9 9 13 12 7 2 360 2 354 289 241 235 229 233 237 234 232 223 212 203 200 197 197 204 196 197 189
297 268 207 234 239 87 316 236 140 130 143 182 5 5 359 352 351 355 3 3 1 3 4 7 5 8 12 4 4 9 10 0 24 317 270 250 238 232 233 240 242 241 212 203 206 202 199 200 193